Regional Weather Roundup
Issued by NWS Portland, ME

Current Version | Previous Version | Text Only | Print | Product List | Glossary Off
Versions: 1 2 3 4 5 6 7 8 9 10 11 12 13 14 15 16 17 18 19 20 21 22 23 24 25 26 27 28 29 30 31 32 33 34 35 36 37 38 39 40 41 42 43 44 45 46 47 48 49 50
503 ASUS41 KGYX 281610 RWRGYX WEATHER ROUNDUP FOR MAINE AND NEW HAMPSHIRE NATIONAL WEATHER SERVICE GRAY ME 1200 PM EDT SUN MAY 28 2017 MEZ002-005-006-010-012-015-018-020-021-024-026-027-029-281700- MAINE CITY SKY/WX TMP DP RH WIND PRES REMARKS PORTLAND CLOUDY 57 47 69 S9 30.00R SANFORD MOSUNNY 58 51 78 E9 29.99R BAR HARBOR SUNNY 57 47 69 E9 30.00S WISCASSET SUNNY 61 48 62 VRB6 30.00S ROCKLAND SUNNY 53 46 77 S9 30.00S FRYEBURG CLOUDY 70 50 49 E7 29.95S LEWISTONAUBURN SUNNY 65 51 60 SE9 29.97R AUGUSTA SUNNY 66 50 56 S7 29.96F WATERVILLE SUNNY 66 51 58 VRB3 29.94S BANGOR MOSUNNY 65 49 56 SE3 29.96F GREENVILLE N/A 66 48 52 NE6 29.93S MILLINOCKET SUNNY 60 50 69 CALM 29.97F HOULTON SUNNY 66 52 60 VRB6 29.95F PRESQUE ISLE SUNNY 65 50 58 S12 29.94F FRENCHVILLE CLOUDY 61 46 57 SE6 29.94S CARIBOU SUNNY 65 50 58 E8 29.94S $$ NHZ002-005-008-009-011-012-014-281700- NEW HAMPSHIRE CITY SKY/WX TMP DP RH WIND PRES REMARKS PORTSMOUTH CLOUDY 57 51 81 SE10 29.97R ROCHESTER SUNNY 65 53 65 E8 29.96R NASHUA CLOUDY 70 54 56 VRB5 29.94F MANCHESTER PTSUNNY 71 52 50 VRB6 29.93S CONCORD MOSUNNY 71 53 52 VRB5 29.94S LACONIA SUNNY 67 50 54 VRB6 29.95S PLYMOUTH FAIR 71 50 46 E6 29.93R BERLIN SUNNY 72 44 36 S6 29.93R WHITEFIELD SUNNY 73 48 41 N8 29.92S JAFFREY CLOUDY 68 53 58 CALM 29.95S KEENE PTSUNNY 70 55 59 S6 29.94S LEBANON MOSUNNY 71 48 43 CALM 29.92S MT WASHINGTON PTSUNNY 48 41 76 SE8 N/A $$ VTZ005-007-008-281700- VERMONT CITY SKY/WX TMP DP RH WIND PRES REMARKS ST JOHNSBURY N/A 71 50 47 MISG 29.90F MONTPELIER MOSUNNY 68 50 52 CALM 29.96S BURLINGTON PTSUNNY 76 50 40 VRB5 29.89S $$ MAZ007-012-024-CTZ003-RIZ002-NYZ038-NYZ072-281700- SOUTHERN NEW ENGLAND AND NY CITY SKY/WX TMP DP RH WIND PRES REMARKS BOSTON PTSUNNY 63 57 81 E12 29.97R WORCESTER CLOUDY 65 52 62 VRB5 29.96S NANTUCKET SUNNY 57 47 69 SE13 30.01R PROVIDENCE PTSUNNY 65 56 72 SE14 29.97S HARTFORD CLOUDY 71 56 58 SW6 29.94S ALBANY CLOUDY 70 54 56 S5 29.93R NEW YORK CITY PTSUNNY 69 57 65 S12 29.94R $$ ANZ081-ANZ082-ANZ150-NHZ014-MEZ023>029-281700- COASTAL MARINE OBSERVATIONS STATION/POSITION TIME TEMP WIND PRES WAVE AIR SEA DIR/SP/G HT/PER (UTC) (F) (DEG/KT/KT) (MB) (FT/S) MOUNT DESERT ROC 1600 47 1016.6F MATINICUS ROCK 1500 50 150/ 8/ 9 1015.8F ISLE OF SHOALS 1500 51 110/ 6/ 7 1015.1R JEFFREYS LEDGE 1506 49 N/A 3/ 8 CASHES LEDGE BUO 1550 50 48 1016.1F 2/ 9 GEORGES BANK BUO 1450 47 47 1016.1 4/ 8 $$ .............KEY.............. WCI - WIND CHILL TC - TEMPERATURE IN CELSIUS VSB - VISIBILITY IN MILES HX - HEAT INDEX FAIR- INDICATES FEW OR NO CLOUDS BELOW 12,000 FT, WITH NO SIGNIFICANT WEATHER AND/OR OBSTRUCTIONS TO VISIBILITY.

USA.gov is the U.S. government's official web portal to all federal, state and local government web resources and services.